Regional Weather Roundup
Issued by NWS Little Rock, AR

Home | Current Version | Previous Version | Graphics & Text | Print | Product List | Glossary On
Versions: 1 2 3 4 5 6 7 8 9 10 11 12 13 14 15 16 17 18 19 20 21 22 23 24 25 26 27 28
000
ASUS44 KLZK 310205
RWRLZK

WEATHER ROUNDUP FOR ARKANSAS
NATIONAL WEATHER SERVICE LITTLE ROCK AR
900 PM CDT THU OCT 30 2014

NOTE: "FAIR" INDICATES FEW OR NO CLOUDS BELOW 12,000 FEET WITH NO
SIGNIFICANT WEATHER AND/OR OBSTRUCTIONS TO VISIBILITY.

ARZ001-003-010-029-310300-
NORTHWEST ARKANSAS

CITY           SKY/WX    TMP DP  RH WIND       PRES   REMARKS
FAYETTEVILLE   CLEAR     52  40  63 CALM      30.10R
FORT SMITH     CLEAR     64  42  44 NW8       30.08R
HARRISON       CLEAR     57  41  55 NW7       30.06R
BENTONVILLE    CLEAR     55  37  50 NW3       30.10R
ROGERS         CLEAR     57  38  48 NW6       30.10R
SILOAM SPGS    CLEAR     55  36  47 NW6       30.11S
HIGHFILL       CLEAR     58  39  49 NW9       30.09R
SPRINGDALE     CLEAR     55  41  58 CALM      30.11R
$$

ARZ004-005-016-310300-
NORTH CENTRAL ARKANSAS

CITY           SKY/WX    TMP DP  RH WIND       PRES   REMARKS
BATESVILLE     CLEAR     55  46  71 SW5       30.02R
FLIPPIN        CLEAR     54  39  58 W3        30.03S
MTN HOME       CLEAR     56  42  59 CALM      30.02S
$$

ARZ040-041-310300-
WEST CENTRAL ARKANSAS

CITY           SKY/WX    TMP DP  RH WIND       PRES   REMARKS
MENA           CLEAR     54  48  82 CALM      30.09R
MOUNT IDA      CLEAR     52  49  89 CALM      30.05R
$$

ARZ009-017-025-026-028-310300-
NORTHEAST ARKANSAS

CITY           SKY/WX    TMP DP  RH WIND       PRES   REMARKS
CORNING        FAIR      55  48  76 E5        30.01F
JONESBORO      MOCLDY    59  50  72 CALM      30.00S
NEWPORT        PTCLDY    59  49  69 SW7       30.01F
WALNUT RIDGE   MOCLDY    57  48  72 CALM      29.99S
BLYTHEVILLE    CLOUDY    57  49  74 E6        30.02S
$$

ARZ022-023-033-042-044-310300-
CENTRAL ARKANSAS

CITY           SKY/WX    TMP DP  RH WIND       PRES   REMARKS
LITTLE ROCK    CLEAR     58  49  72 SW7       30.03F
N LITTLE ROCK  CLEAR     59  50  71 SW5       30.03
JACKSONVILLE   CLEAR     51  48  90 CALM      30.03S
SEARCY         CLEAR     51  50  96 CALM      30.03F
HOT SPRINGS    PTCLDY    58  48  69 NW3       30.06R
RUSSELLVILLE   CLEAR     52  50  93 CALM      30.04R
$$

ARZ036-310300-
EAST ARKANSAS

CITY           SKY/WX    TMP DP  RH WIND       PRES   REMARKS
WEST MEMPHIS   PTCLDY    58  49  72 S3        30.01F
$$

ARZ050-053-066-070-073-310300-
SOUTHWEST ARKANSAS

CITY           SKY/WX    TMP DP  RH WIND       PRES   REMARKS
ARKADELPHIA    FAIR      53  53 100 CALM      30.06S
CAMDEN         CLEAR     52  50  93 CALM      30.06S
TEXARKANA      CLEAR     60  45  57 SW3       30.07S
DE QUEEN       CLEAR     53  51  93 CALM      30.06R
$$

ARZ056-057-069-310300-
SOUTHEAST ARKANSAS

CITY           SKY/WX    TMP DP  RH WIND       PRES   REMARKS
PINE BLUFF     CLEAR     59  51  75 SW3       30.05S
STUTTGART      CLEAR     57  48  72 S8        30.04S
MONTICELLO     CLEAR     57  52  83 W3        30.06R

$$





USA.gov is the U.S. government's official web portal to all federal, state and local government web resources and services.